Location: Caltech
(34.1382°N, 118.1253°W)
Time: 12:17:33
(UTC-07:00)

Iridium 65 - Visible Passes

Search period start: 24 April 2014 00:00
Search period end: 04 May 2014 00:00
Orbit: 776 x 779 km, 86.4° (Epoch: 24 April)

Date Brightness Start Highest point End Pass type
(mag) Time Alt. Az. Time Alt. Az. Time Alt. Az.
24 Apr 5.5 21:04:33 10° N 21:09:42 60° E 21:11:45 35° SSE visible
24 Apr 8.2 22:47:47 10° NW 22:49:47 12° W 22:51:47 10° WSW visible
25 Apr 6.3 20:31:30 10° NNE 20:36:04 31° E 20:38:51 19° SE visible
25 Apr 7.5 22:12:28 10° NNW 22:16:34 24° W 22:19:22 16° SW visible
26 Apr 7.1 19:59:10 10° NE 20:02:19 16° ENE 20:05:28 10° ESE visible
26 Apr 6.4 21:38:17 10° NNW 21:43:15 46° W 21:46:31 20° SSW visible
27 Apr 5.5 21:04:35 10° N 21:09:48 89° E 21:13:41 18° S visible
28 Apr 5.8 20:31:15 10° NNE 20:36:15 46° E 20:40:54 12° SSE visible
28 Apr 8.1 22:13:23 10° NW 22:16:30 16° W 22:19:36 10° WSW visible
29 Apr 6.7 19:58:25 10° NNE 20:02:34 24° E 20:06:42 10° SE visible
29 Apr 7.2 21:38:42 10° NNW 21:43:14 31° W 21:47:45 10° SW visible
30 Apr 6.0 21:04:44 10° N 21:09:51 61° W 21:14:58 10° SSW visible
01 May 5.5 20:31:10 10° N 20:36:22 69° E 20:41:32 10° S visible
01 May 8.5 22:15:30 10° WNW 22:16:22 10° WNW 22:17:13 10° W visible
02 May 6.2 19:58:00 10° NNE 20:02:46 35° E 20:07:29 10° SSE visible
02 May 7.9 21:39:21 10° NW 21:43:10 21° W 21:46:59 10° SW visible
03 May 6.8 21:05:01 10° NNW 21:09:52 40° W 21:14:41 10° SSW visible
